Terminal Aerodrome Forecast
Issued by NWS

Current Version | Previous Version | Text Only | Print | Product List | Glossary On
Versions: 1 2 3 4 5 6 7 8 9 10 11 12 13 14 15 16 17 18 19 20 21
425 FTUS41 KILN 290526 TAFLUK TAF KLUK 290526Z 2906/3006 04007KT P6SM SCT018 OVC028 FM290700 04006KT P6SM OVC018 FM291400 05006KT P6SM BKN025 FM291700 06008KT P6SM BKN050 FM292100 07009KT P6SM SCT250=

USA.gov is the U.S. government's official web portal to all federal, state and local government web resources and services.